User: anonymous   Login
Location: Unspecified
(0.0000°N, 0.0000°E)
Time: 07:49:27
(UTC+00:00)
Language:

STARLINK-32642 - Orbit

View from above orbital plane
View from above orbital plane
View from above satellite
View from above satellite

Ground track
Ground track

The orbit is defined by the following mean orbital elements,

1 62211U          26145.58180014 +.00000000 +00000-0 +49796-3 0 00008
2 62211  43.0015 196.2435 0001623 270.7593  89.3073 15.27592420    09
Epoch (UTC): 25 May 2026 13:57:47
Eccentricity: 0.0001623
inclination: 43.0015°
perigee height: 482 km
apogee height: 484 km
right ascension of ascending node: 196.2435°
argument of perigee: 270.7593°
revolutions per day: 15.27592420
mean anomaly at epoch: 89.3073°

The dashed part of the orbit path shows where the satellite is in the earth's shadow,  

DLR